Minot AFB, ND

5:01 PM CDT on October 18, 2019 (GMT -0500)
Minot Air Force Base

Weather History for KMIB - August, 2019

Change the Weather History Date:

Wednesday, August 7, 2019

  Actual Average Record
Temperature  
Mean Temperature 64 °F -  
Max Temperature 72 °F 79 °F 93 °F (1997)
Min Temperature 57 °F 54 °F 45 °F (2006)
Growing Degree Days 14 (Base 50)    
Moisture  
Dew Point 48 °F    
Average Humidity 58    
Maximum Humidity 82    
Minimum Humidity 30    
Precipitation  
Precipitation 0.00 in - - ()
Sea Level Pressure  
Sea Level Pressure 29.94 in    
Wind  
Wind Speed 8 mph (NW)    
Max Wind Speed 16 mph    
Max Gust Speed 28 mph    
Visibility 10 miles    
Events      
Averages and records for this station are not official NWS values.
T = Trace of Precipitation, MM = Missing Value Source: NWS Daily Summary

Daily Weather History Graph

Daily Weather History Graph

Search for Another Location

Airport or City:

Astronomy

Aug. 07, 2019 Rise Set
Actual Time 6:28 AM CDT 9:13 PM CDT
Civil Twilight 5:52 AM CDT 9:49 PM CDT
Nautical Twilight 5:06 AM CDT 10:34 PM CDT
Astronomical Twilight 4:11 AM CDT 11:28 PM CDT
Moon 2:39 PM CDT (8/7) 12:28 AM CDT (8/7)
Length of Visible Light 15h 57m
Length of Day
14h 45m
Waxing Crescent, 50% of the Moon is Illuminated
Aug 7
Waxing Crescent
Aug 7
First Quarter
Aug 15
Full
Aug 23
Last Quarter
Aug 30
New

Hourly Weather History & Observations

Time (CDT) Temp. Dew Point Humidity Pressure Visibility Wind Dir Wind Speed Gust Speed Precip Events Conditions
12:56 AM 62.6 °F 57.0 °F 82% 29.86 in 10.0 mi Calm Calm - N/A   Clear
1:56 AM 62.2 °F 56.7 °F 82% 29.88 in 10.0 mi NNW 8.1 mph - N/A   Partly Cloudy
2:56 AM 62.8 °F 56.1 °F 79% 29.88 in 10.0 mi NNW 6.9 mph - N/A   Mostly Cloudy
3:56 AM 62.4 °F 56.1 °F 80% 29.88 in 10.0 mi North 10.4 mph - N/A   Scattered Clouds
4:56 AM 62.1 °F 54.7 °F 77% 29.91 in 10.0 mi NNW 5.8 mph - N/A   Mostly Cloudy
5:56 AM 60.4 °F 53.2 °F 77% 29.92 in 10.0 mi North 8.1 mph - N/A   Mostly Cloudy
6:56 AM 58.6 °F 50.7 °F 75% 29.95 in 10.0 mi NNW 8.1 mph - N/A   Scattered Clouds
7:56 AM 58.1 °F 48.7 °F 71% 29.96 in 10.0 mi North 8.1 mph - N/A   Partly Cloudy
8:56 AM 57.9 °F 49.3 °F 73% 29.97 in 10.0 mi NNW 8.1 mph - N/A   Clear
9:56 AM 59.5 °F 47.3 °F 64% 29.98 in 10.0 mi NNW 9.2 mph - N/A   Clear
12:56 PM 66.2 °F 46.9 °F 50% 29.98 in 10.0 mi NW 16.1 mph 23.0 mph N/A   Mostly Cloudy
1:56 PM 67.1 °F 46.2 °F 47% 29.97 in 10.0 mi WNW 12.7 mph 23.0 mph N/A   Clear
2:55 PM 69.8 °F 44.6 °F 40% 29.96 in 10.0 mi WNW 13.8 mph 27.6 mph N/A   Clear
2:56 PM 69.3 °F 45.1 °F 42% 29.96 in 10.0 mi WNW 11.5 mph 27.6 mph N/A   Clear
3:56 PM 70.2 °F 41.9 °F 36% 29.95 in 10.0 mi NNW 15.0 mph 21.9 mph N/A   Clear
4:20 PM 71.6 °F 41.0 °F 33% 29.95 in 10.0 mi WNW 12.7 mph - N/A   Clear
4:56 PM 71.2 °F 43.0 °F 36% 29.94 in 10.0 mi NW 10.4 mph 21.9 mph N/A   Clear
5:56 PM 72.0 °F 38.8 °F 30% 29.94 in 10.0 mi NW 12.7 mph 20.7 mph N/A   Clear
6:56 PM 71.6 °F 39.4 °F 31% 29.94 in 10.0 mi NNW 9.2 mph 17.3 mph N/A   Clear
8:56 PM - - N/A% - - North - - N/A   Unknown
11:56 PM - - N/A% - - North - - N/A   Unknown